Вернуться в каталог

SL-3 R/B

АктивенPO
NORAD 12465·ROCKET BODY·🇷🇺 Russia

Запущен May 19, 1981 с Plesetsk Cosmodrome

Loading…

Ближайшие Пролёты (ближайшие 24 часа)

TLE

СвежийSource: Space-Track

Эпоха: Sep 14, 2026, 13:28 UTC

1 12465U 81046B   26257.56180320  .00009900  00000-0  20185-3 0  9991
2 12465  81.2283  62.2456 0017958  79.6549 280.6719 15.45886241467575

Отслеживайте SL-3 R/B в реальном времени с AllMySat

Download on the App Store